Home > Weather > Chongqing > Past weeks

Flag for China Past Weather in Chongqing, Chongqing Municipality, China — Yesterday and Last 2 Weeks

Now
70 °F

Light rain. Fog.


Feels Like: 70 °F
Forecast: 72 / 84 °F
Wind: 1 mph from North

Location: Chongqing Airport

Current Time: Jun 27, 2016 at 12:13:52 PM

Latest Report: Jun 27, 2016 at 11:00 AM


Visibility: 1 mi

Pressure: 29.86 "Hg

Humidity: 94%

Dew Point: 68 °F

Location of ChongqingLocation

Past Weather in Chongqing — Graph

°F

Chongqing Temperature Yesterday

Maximum temperature yesterday: 75 °F (at 1:00 PM)
Minimum temperature yesterday: 68 °F (at 12:00 AM)
Average temperature yesterday: 71 °F

High & Low Weather Summary for the Past Weeks

 TemperatureHumidityPressure
High95 °F (Jun 23, 1:00 PM)94% (Jun 15, 5:00 AM)29.92 "Hg (Jun 15, 5:00 AM)
Low66 °F (Jun 25, 7:00 AM)22% (Jun 16, 6:00 PM)29.47 "Hg (Jun 23, 4:00 PM)
Average80 °F72%29.68 "Hg
* Reported Jun 12 11:00 AM — Jun 27 11:00 AM, Chongqing, Weather by CustomWeather, © 2016

Note: Actual official high and low records may vary slightly from our data, if they occured in-between our weather recording intervals... More about our weather records

Advertising

Chongqing Weather History for the Previous 24 Hours

Scroll right to see more
 ConditionsComfort  
Time TempWeatherWind HumidityBarometerVisibility
11:00 AM
Mon, Jun 27
70 °FLight rain. Fog.1 mph94%29.86 "Hg1 mi
10:00 AM70 °FFog.3 mph88%29.86 "Hg1 mi
9:00 AM70 °FFog.1 mph94%29.86 "Hg1 mi
8:00 AM70 °FFog.1 mph88%29.86 "Hg1 mi
7:00 AM68 °FFog.1 mph94%29.83 "Hg2 mi
6:00 AM68 °FFog.1 mph94%29.83 "Hg1 mi
5:00 AM68 °FFog.1 mph94%29.83 "Hg2 mi
4:00 AM68 °FFog.1 mph94%29.83 "Hg2 mi
3:00 AM70 °FFog.3 mph88%29.83 "Hg3 mi
2:00 AM70 °FSprinkles. Fog.1 mph88%29.83 "Hg3 mi
1:00 AM70 °FSprinkles. Fog.1 mph88%29.86 "Hg3 mi
12:00 AM70 °FRain showers. Fog.1 mph88%29.86 "Hg3 mi
11:00 PM
Sun, Jun 26
72 °FLight rain. Passing clouds.3 mph83%29.89 "HgN/A
10:00 PM72 °FLight rain. Passing clouds.3 mph83%29.86 "HgN/A
9:00 PM72 °FPassing clouds.6 mph83%29.86 "HgN/A
8:00 PM73 °FPassing clouds.6 mph78%29.83 "HgN/A
7:00 PM73 °FSunny.6 mph78%29.83 "Hg10 mi
6:00 PM73 °FPassing clouds.8 mph78%29.83 "HgN/A
5:00 PM73 °FScattered clouds.3 mph78%29.83 "HgN/A
4:00 PM73 °FScattered clouds.3 mph78%29.83 "HgN/A
3:00 PM73 °FScattered clouds.6 mph78%29.83 "HgN/A
2:00 PM75 °FScattered clouds.3 mph74%29.83 "HgN/A
1:00 PM75 °FScattered clouds.3 mph74%29.86 "HgN/A
12:00 PM73 °FScattered clouds.3 mph78%29.86 "Hg5 mi
Weather by CustomWeather, © 2016

See weather overviewHow to use our weather pages